Terug naar catalogus

FENGYUN 1C DEB

ActiefSSO
NORAD 29766·DEBRIS·🇨🇳 China

Gelanceerd May 10, 1999 vanaf Taiyuan Satellite Launch Center

Loading…

Volgende Passages (komende 24 uur)

TLE

VersSource: Space-Track

Epoch: Sep 14, 2026, 07:40 UTC

1 29766U 99025BG  26257.31995402  .00000757  00000-0  51723-3 0  9990
2 29766  98.7002 197.3708 0142690 242.7793 272.6917 13.97900727996530

Volg FENGYUN 1C DEB in realtime met AllMySat

Download on the App Store